Texas Tower NM East of Long Beach, NJ (44066)

Conditions for Tuesday

Daily
Weekly
Monthly
Marine Data Graph

Marine & Boating Location Search

Enter a coastal zip code for marine weather.

General Information

Location: 39.568 North -72.586 West
Buoy Type: 3-meter discus buoy
Payload: ARES payload
Owned by: NDBC
Windspeed: Measured by obtained from anemometer
Sea Surface: Measured by Intake

Weather and Wave Data

Time Temp Humidity Wind Dominant Wave Wind Wave Wave Swell Pressure
  Air
(°F)
Water
(°F)
  Dir Speed
(kts)
Speed
(mph)
Period
(sec)
Height
(ft)
Range
(ft)
Period
(sec)
Height
(ft)
Range
(ft)
Period
(sec)
Height
(ft)
Range
(ft)
Atmo.
(in)
Tend.
(in)
20:50 50 48 81 SW 7.8 8.9 5 1.97 exactly 2.0 4 1.64 0.82 - 2.46 5 1.64 0.82 - 2.46 29.86 +0.02
21:50 50 48 85 SW 7.8 8.9 4 1.64 exactly 1.6 4 1.64 0.82 - 2.46 5 1.64 0.82 - 2.46 29.87 +0.01
22:50 49 48 90 SW 9.7 11.2 4 1.64 exactly 1.6 4 1.64 0.82 - 2.46 - - - 29.87 +0.01
23:50 49 48 92 SW 9.7 11.2 4 1.31 exactly 1.3 4 1.64 0.82 - 2.46 7 1.64 0.82 - 2.46 29.86 -
00:50 51 47 71 West 9.7 11.2 4 1.31 exactly 1.3 4 1.64 0.82 - 2.46 - - - 29.85 -0.02
01:50 50 47 71 NW 9.7 11.2 6 1.31 exactly 1.3 3 1.64 0.82 - 2.46 6 1.64 0.82 - 2.46 29.85 -0.02
02:50 49 47 78 NW 5.8 6.7 3 1.64 exactly 1.6 3 1.64 0.82 - 2.46 7 1.64 0.82 - 2.46 29.84 -0.02
03:50 48 47 89 NNW 5.8 6.7 12 1.31 exactly 1.3 3 1.64 0.82 - 2.46 12 1.64 0.82 - 2.46 29.85 -
07:50 49 47 79 North 9.7 11.2 7 1.31 exactly 1.3 5 1.64 0.82 - 2.46 - - - 29.91 +0.06
08:50 48 47 85 North 7.8 8.9 12 1.31 exactly 1.3 3 1.64 0.82 - 2.46 12 1.64 0.82 - 2.46 29.92 +0.05
09:50 48 47 85 North 7.8 8.9 12 1.31 exactly 1.3 3 1.64 0.82 - 2.46 12 1.64 0.82 - 2.46 29.93 +0.04
10:50 48 48 87 North 7.8 8.9 6 1.31 exactly 1.3 3 1.64 0.82 - 2.46 6 1.64 0.82 - 2.46 29.94 +0.04
11:50 49 48 84 NNW 5.8 6.7 11 1.31 exactly 1.3 3 1.64 0.82 - 2.46 11 1.64 0.82 - 2.46 29.94 +0.02
12:50 49 49 84 NW 5.8 6.7 12 1.31 exactly 1.3 - - - 12 1.64 0.82 - 2.46 29.93 -
13:50 49 49 90 WNW 3.9 4.5 12 1.31 exactly 1.3 3 1.64 0.82 - 2.46 12 1.64 0.82 - 2.46 29.93 -0.01
14:50 50 50 88 NW 5.8 6.7 6 1.31 exactly 1.3 - - - 6 1.64 0.82 - 2.46 29.93 -0.01
16:50 51 51 85 WSW 3.9 4.5 12 1.31 exactly 1.3 - - - 12 1.64 0.82 - 2.46 29.92 -0.01
17:50 52 51 79 SW 3.9 4.5 7 1.31 exactly 1.3 - - - 7 1.64 0.82 - 2.46 29.92 -0.01
18:50 51 50 79 SW 7.8 8.9 6 1.31 exactly 1.3 - - - 6 1.64 0.82 - 2.46 29.94 +0.02
19:50 51 49 83 WSW 7.8 8.9 5 1.31 exactly 1.3 - - - 5 1.64 0.82 - 2.46 29.97 +0.05
20:50 50 49 84 West 5.8 6.7 5 1.31 exactly 1.3 - - - 5 1.64 0.82 - 2.46 29.99 +0.07
21:50 51 49 74 West 7.8 8.9 5 1.31 exactly 1.3 - - - 5 1.64 0.82 - 2.46 30.02 +0.08
22:50 50 49 82 West 7.8 8.9 5 1.64 exactly 1.6 - - - 5 1.64 0.82 - 2.46 30.03 +0.06
23:50 50 49 85 WNW 5.8 6.7 10 1.64 exactly 1.6 - - - 10 1.64 0.82 - 2.46 30.05 +0.05
00:50 51 48 73 WNW 7.8 8.9 10 1.31 exactly 1.3 - - - 10 1.64 0.82 - 2.46 30.06 +0.05
01:50 49 48 87 WNW 5.8 6.7 8 1.31 exactly 1.3 - - - 8 1.64 0.82 - 2.46 30.07 +0.04
02:50 49 48 87 WNW 7.8 8.9 9 1.31 exactly 1.3 - - - 9 1.64 0.82 - 2.46 30.08 +0.03
03:50 49 48 88 WNW 7.8 8.9 9 1.31 exactly 1.3 - - - 9 1.64 0.82 - 2.46 30.09 +0.03

Detailed Wave Spectra

Time Water Depth Wave Height Spectral Peak Period Average Wave Period Sampling Interval Wave Record
20:00 269 ft 1.94 ft 4.2 sec 3.5 sec 0.6 sec 2400 sec
21:00 269 ft 1.80 ft 4.5 sec 3.5 sec 0.6 sec 2400 sec
22:00 269 ft 1.57 ft 3.7 sec 3.7 sec 0.6 sec 2400 sec
23:00 269 ft 1.64 ft 4.0 sec 3.6 sec 0.6 sec 2400 sec
00:00 269 ft 1.38 ft 3.6 sec 3.7 sec 0.6 sec 2400 sec
01:00 269 ft 1.35 ft 3.7 sec 3.5 sec 0.6 sec 2400 sec
02:00 269 ft 1.41 ft 6.3 sec 3.7 sec 0.6 sec 2400 sec
03:00 269 ft 1.51 ft 3.2 sec 3.6 sec 0.6 sec 2400 sec
04:00 269 ft 1.41 ft 12.1 sec 3.8 sec 0.6 sec 2400 sec
08:00 269 ft 1.35 ft 7.1 sec 3.6 sec 0.6 sec 2400 sec
09:00 269 ft 1.38 ft 12.1 sec 3.7 sec 0.6 sec 2400 sec
10:00 269 ft 1.31 ft 12.1 sec 3.9 sec 0.6 sec 2400 sec
11:00 269 ft 1.31 ft 5.6 sec 3.9 sec 0.6 sec 2400 sec
12:00 269 ft 1.31 ft 11.4 sec 3.9 sec 0.6 sec 2400 sec
13:00 269 ft 1.21 ft 12.1 sec 4.0 sec 0.6 sec 2400 sec
14:00 269 ft 1.25 ft 12.1 sec 4.1 sec 0.6 sec 2400 sec
15:00 269 ft 1.18 ft 5.9 sec 4.2 sec 0.6 sec 2400 sec
17:00 269 ft 1.31 ft 12.1 sec 4.4 sec 0.6 sec 2400 sec
18:00 269 ft 1.21 ft 6.7 sec 4.2 sec 0.6 sec 2400 sec
19:00 269 ft 1.38 ft 5.6 sec 4.4 sec 0.6 sec 2400 sec
20:00 269 ft 1.38 ft 5.0 sec 4.6 sec 0.6 sec 2400 sec
21:00 269 ft 1.35 ft 5.3 sec 4.4 sec 0.6 sec 2400 sec
22:00 269 ft 1.35 ft 5.3 sec 4.2 sec 0.6 sec 2400 sec
23:00 269 ft 1.51 ft 4.8 sec 4.5 sec 0.6 sec 2400 sec
00:00 269 ft 1.51 ft 10.0 sec 4.8 sec 0.6 sec 2400 sec
01:00 269 ft 1.41 ft 10.0 sec 4.8 sec 0.6 sec 2400 sec
02:00 269 ft 1.35 ft 8.3 sec 4.8 sec 0.6 sec 2400 sec
03:00 269 ft 1.41 ft 9.1 sec 5.3 sec 0.6 sec 2400 sec